Wind_Speed
6 7 7 6 6 7 6 7 8 13 15 7 9 12 8 12 17 18 18 18 15 16 22 21 18 17 16 15 14 14 15 14 14 15 16 14 13 12
7 8 10 8 7 7 8 9 10 11 15 14 15 15 15 18 17 22 17 16 16 13 21 24 20 17 14 16 16 16 16 17 16 15 16 15 14 12
8 7 7 8 8 8 9 8 9 10 14 13 13 15 19 12 18 14 15 15 14 18 17 24 21 19 19 20 19 18 19 19 19 15 13 15 14 12
8 7 7 6 6 7 6 8 9 12 10 13 10 12 13 11 12 18 14 10 15 16 20 21 21 23 20 21 20 20 20 19 15 15 10 10 13 13
7 7 7 7 8 8 10 9 7 9 11 12 14 10 13 15 11 15 15 12 15 16 17 16 19 20 23 21 20 20 18 19 15 16 9 10 10 12
8 9 8 8 9 9 8 9 10 9 10 13 16 14 15 12 9 14 16 15 15 17 16 17 19 22 20 20 18 19 22 25 19 15 11 10 12 12
10 10 10 12 14 15 12 10 12 9 11 13 12 14 16 16 15 14 18 18 19 17 18 16 19 16 16 17 15 13 24 28 21 15 12 13 14 14
9 9 9 13 13 15 12 12 13 13 14 13 14 15 19 18 16 17 17 20 20 14 21 20 14 14 15 16 15 19 28 24 17 12 12 12 14 16
10 13 10 11 12 12 14 13 13 14 15 16 18 17 19 17 19 21 21 22 22 23 16 21 20 21 15 16 18 22 22 18 20 18 19 20 19 20
14 13 13 16 17 14 11 6 8 9 13 13 15 20 22 22 23 23 22 21 20 20 19 22 17 18 19 16 18 20 12 21 21 21 23 20 22 23
16 15 13 12 10 7 8 8 7 7 9 16 15 13 12 12 12 15 10 15 19 19 16 21 15 20 18 16 17 16 19 21 22 23 22 22 22 25
7 8 9 8 7 7 7 8 9 10 11 10 11 12 12 13 12 6 8 10 14 16 13 21 21 22 21 12 13 16 19 22 21 20 22 22 22 23
3 3 6 6 5 6 8 8 9 10 9 11 9 6 6 6 11 12 14 14 13 14 15 18 17 19 20 23 17 17 19 18 20 22 21 21 21 22
7 6 6 7 9 10 11 10 10 8 9 9 8 7 8 9 11 12 13 16 16 17 15 18 18 19 21 22 21 19 19 20 21 24 20 20 22 22
7 8 10 11 11 10 11 8 6 6 7 6 4 7 10 12 14 12 13 15 13 15 13 17 21 22 19 20 23 26 25 23 20 21 22 18 21 21
11 12 12 10 7 4 4 3 3 4 5 6 8 9 10 10 10 13 15 17 17 15 14 13 15 17 20 21 24 25 25 27 25 24 23 23 23 21
9 7 9 7 8 8 7 2 3 2 4 6 7 10 10 10 11 12 14 15 14 17 20 19 21 22 19 21 24 23 25 23 20 23 28 29 29 29
1 1 2 2 2 3 5 5 8 8 8 9 10 10 10 11 13 13 13 14 17 18 20 21 26 29 26 21 13 19 27 29 31 34 35 37 38 29
4 4 4 3 3 4 5 6 6 9 9 10 11 13 13 15 18 17 17 15 17 18 21 23 24 25 28 29 34 27 33 37 37 37 31 31 33 34
4 4 3 3 2 3 4 5 6 7 10 10 11 12 13 14 15 16 16 18 20 25 27 24 20 21 24 32 41 45 32 31 28 33 38 41 45 47
3 3 3 3 2 3 4 5 7 8 9 10 11 12 14 15 16 17 18 20 22 21 23 23 24 29 31 30 34 36 37 37 38 40 44 48 54 56
3 2 2 2 2 3 4 6 6 8 9 9 10 12 14 16 17 19 20 23 23 23 25 26 28 28 28 28 36 40 43 42 42 42 39 39 41 47
2 2 1 2 3 4 6 7 7 8 9 10 14 16 19 20 20 19 20 21 22 24 26 29 29 28 29 31 36 40 42 42 37 39 47 44 46 48
Wind_Direction
252 273 257 284 267 276 281 288 298 305 309 329 6 338 315 318 319 324 321 317 336 334 347 344 338 334 338 345 346 345 347 346 335 333 335 336 333 344
245 250 263 270 293 272 280 284 285 284 289 294 308 320 327 320 323 312 317 338 328 330 336 345 341 342 341 342 339 337 335 335 329 323 330 331 332 334
251 254 266 270 260 272 293 295 283 288 286 297 312 307 311 321 325 328 334 337 339 324 328 339 340 341 334 331 329 326 326 329 328 320 314 325 328 329
258 254 257 261 274 301 305 291 288 291 290 299 304 316 312 315 317 330 334 340 332 321 335 329 336 336 345 342 335 324 324 325 326 328 296 315 324 329
250 251 254 254 270 272 270 275 298 303 318 302 310 310 312 306 306 322 321 326 331 333 329 330 324 338 342 338 340 343 347 341 329 331 295 301 309 319
250 255 256 262 271 278 282 269 290 284 294 290 304 301 305 329 340 334 325 325 327 329 327 334 328 331 328 322 322 326 336 337 332 327 307 296 301 301
253 256 264 248 250 265 266 273 274 293 286 300 305 307 316 331 329 319 313 314 317 319 320 317 318 327 323 326 313 319 329 325 324 325 320 308 305 302
233 255 267 276 276 270 279 284 289 290 290 289 291 290 294 302 300 300 302 307 311 316 314 316 327 318 325 321 323 323 325 320 317 324 317 314 310 307
238 239 222 256 262 264 288 290 286 282 281 283 285 287 286 296 297 302 304 301 303 303 308 306 313 313 310 320 316 317 317 332 332 321 316 309 301 297
236 247 244 251 272 281 285 296 279 286 288 286 276 275 287 292 295 299 307 317 318 312 316 320 324 314 313 301 322 321 321 335 329 337 339 342 324 306
238 241 244 252 255 258 284 288 319 311 289 294 305 305 312 323 340 343 331 317 329 327 330 321 323 311 314 314 317 320 324 325 326 324 331 332 330 333
231 229 235 246 259 273 288 302 312 322 333 339 351 343 346 354 347 333 318 320 315 320 325 338 325 331 320 322 312 312 316 326 324 325 327 327 324 320
171 160 250 254 280 300 301 309 320 326 349 360 327 331 332 326 344 332 323 321 324 319 320 322 320 319 314 315 320 319 308 309 316 319 316 316 315 316
219 262 289 295 299 310 307 313 321 331 343 317 321 327 319 329 326 333 322 308 323 338 338 323 322 325 320 322 319 321 321 319 313 307 303 307 309 302
260 271 280 289 297 320 328 354 20 346 352 320 325 331 338 342 342 334 331 329 337 328 324 316 328 322 315 312 310 313 318 320 319 316 318 307 307 308
279 283 287 289 322 10 23 14 347 355 16 356 352 342 345 341 340 333 335 337 335 330 324 320 309 306 309 311 306 313 319 313 310 316 314 306 311 302
272 279 269 260 238 226 234 259 299 340 342 353 347 346 347 343 339 329 339 331 331 325 324 323 311 308 305 314 316 317 310 306 308 306 297 291 292 308
126 121 35 40 49 344 354 2 349 338 345 342 341 338 340 347 331 345 339 337 333 330 327 325 323 326 326 315 307 301 290 292 286 288 294 301 304 299
118 121 106 66 48 45 31 16 13 352 350 5 1 353 351 346 347 347 336 338 332 327 324 328 332 329 323 314 304 299 301 296 298 298 308 308 299 292
134 122 108 84 53 48 38 24 14 358 5 2 357 350 348 347 342 339 336 331 328 327 331 329 324 316 313 306 302 311 317 316 310 295 290 285 279 280
121 105 96 78 49 29 20 12 20 357 359 2 355 352 346 343 338 333 329 327 324 326 320 318 314 305 313 313 305 303 304 298 297 292 289 290 290 293
121 110 81 53 19 10 8 6 9 1 356 352 349 343 338 338 335 332 330 327 324 320 316 313 317 317 315 310 305 305 306 307 300 303 299 293 289 290
132 133 67 37 17 1 357 2 358 356 348 342 337 335 335 334 330 326 324 321 318 315 316 315 315 313 310 308 306 305 304 306 307 302 295 297 300 300
Height
1613 1612 1612 1612 1613 1613 1613 1612 1611 1608 1604 1604 1603 1605 1601 1603 1600 1600 1597 1595 1590 1587 1584 1580 1578 1576 1573 1571 1569 1567 1565 1563 1561 1558 1557 1555 1553 1552
1612 1612 1611 1611 1611 1612 1612 1611 1611 1610 1608 1606 1605 1604 1600 1601 1601 1597 1594 1591 1588 1586 1584 1581 1578 1575 1572 1571 1569 1567 1564 1561 1560 1558 1556 1554 1552 1551
1609 1609 1610 1610 1610 1610 1609 1609 1609 1609 1606 1605 1603 1603 1601 1599 1597 1595 1593 1589 1589 1585 1583 1581 1577 1574 1572 1569 1567 1565 1563 1560 1558 1556 1554 1552 1551 1550
1609 1609 1609 1609 1609 1609 1609 1609 1608 1606 1606 1605 1603 1602 1600 1598 1595 1593 1591 1590 1588 1584 1583 1579 1576 1573 1571 1568 1566 1563 1561 1558 1556 1554 1553 1552 1550 1548
1607 1607 1607 1607 1608 1607 1606 1606 1606 1605 1604 1603 1601 1600 1598 1595 1594 1591 1589 1588 1586 1584 1582 1578 1575 1572 1569 1567 1564 1562 1560 1557 1555 1552 1551 1551 1550 1548
1606 1605 1605 1605 1605 1605 1604 1604 1604 1602 1602 1601 1600 1598 1596 1593 1592 1591 1589 1587 1585 1583 1580 1577 1575 1571 1568 1565 1563 1560 1558 1556 1553 1551 1549 1549 1548 1547
1604 1605 1604 1603 1602 1601 1601 1602 1600 1600 1600 1598 1597 1596 1594 1591 1591 1591 1588 1585 1583 1580 1578 1575 1572 1570 1566 1563 1559 1559 1558 1555 1551 1549 1548 1547 1546 1545
1601 1602 1602 1600 1599 1598 1598 1598 1597 1596 1595 1595 1595 1594 1591 1590 1589 1588 1585 1582 1578 1578 1574 1571 1569 1567 1565 1562 1559 1557 1556 1553 1550 1547 1546 1545 1544 1543
1597 1597 1598 1595 1596 1596 1595 1594 1594 1593 1591 1591 1589 1589 1587 1586 1584 1582 1581 1578 1576 1572 1570 1568 1566 1564 1561 1560 1557 1555 1553 1551 1549 1546 1544 1542 1540 1539
1592 1593 1594 1594 1593 1592 1592 1592 1591 1590 1589 1587 1585 1583 1582 1581 1580 1578 1576 1573 1571 1571 1570 1565 1564 1562 1559 1555 1554 1551 1550 1548 1546 1544 1542 1539 1536 1534
1588 1588 1588 1589 1589 1589 1589 1588 1587 1587 1585 1582 1581 1580 1579 1578 1576 1574 1575 1572 1569 1568 1567 1563 1561 1558 1555 1554 1552 1549 1548 1546 1543 1540 1539 1537 1534 1531
1585 1585 1586 1587 1587 1586 1585 1585 1583 1583 1582 1580 1578 1578 1578 1576 1575 1573 1571 1569 1568 1566 1565 1562 1559 1557 1553 1552 1550 1548 1545 1542 1540 1538 1536 1533 1531 1528
1588 1586 1582 1584 1584 1584 1583 1583 1582 1581 1580 1579 1580 1579 1578 1577 1575 1572 1570 1568 1567 1566 1564 1560 1557 1554 1552 1549 1547 1545 1542 1539 1537 1535 1533 1531 1528 1526
1582 1582 1582 1582 1582 1582 1580 1580 1580 1578 1579 1580 1579 1577 1576 1572 1571 1568 1569 1567 1565 1563 1561 1558 1555 1554 1549 1546 1545 1542 1539 1536 1534 1531 1529 1527 1524 1521
1581 1581 1581 1580 1580 1578 1578 1579 1578 1578 1576 1576 1575 1574 1572 1572 1570 1569 1565 1563 1563 1562 1561 1557 1553 1550 1548 1544 1542 1539 1536 1534 1532 1528 1525 1522 1520 1517
1577 1576 1576 1576 1577 1577 1578 1577 1575 1573 1573 1572 1573 1572 1569 1569 1567 1566 1563 1560 1560 1558 1558 1555 1551 1546 1542 1541 1537 1532 1532 1530 1527 1526 1521 1517 1515 1513
1574 1573 1573 1573 1574 1573 1573 1570 1571 1570 1569 1569 1568 1568 1566 1565 1566 1562 1560 1559 1556 1554 1550 1549 1545 1542 1539 1537 1533 1531 1526 1524 1522 1518 1513 1510 1507 1506
1572 1572 1572 1573 1574 1571 1570 1569 1569 1567 1566 1565 1565 1564 1563 1562 1559 1559 1558 1556 1553 1551 1549 1544 1540 1535 1531 1530 1533 1525 1521 1515 1512 1510 1509 1505 1499 1499
1573 1572 1572 1573 1574 1572 1572 1570 1569 1568 1566 1564 1565 1564 1563 1560 1557 1554 1553 1552 1549 1546 1544 1540 1538 1536 1529 1524 1520 1521 1518 1510 1505 1500 1500 1498 1495 1490
1571 1570 1570 1570 1572 1570 1568 1569 1569 1568 1566 1565 1564 1563 1560 1557 1557 1556 1554 1551 1546 1542 1538 1536 1535 1534 1529 1523 1513 1506 1508 1507 1503 1494 1489 1484 1481 1477
1570 1569 1569 1570 1569 1569 1566 1565 1564 1563 1563 1562 1561 1561 1560 1557 1556 1554 1550 1546 1543 1539 1536 1534 1531 1527 1522 1517 1510 1505 1501 1499 1498 1491 1484 1477 1469 1463
1568 1568 1567 1566 1566 1565 1564 1563 1563 1562 1561 1561 1558 1557 1554 1552 1551 1548 1546 1543 1539 1536 1532 1528 1524 1521 1517 1513 1505 1497 1491 1488 1485 1481 1477 1473 1466 1456
1565 1565 1564 1565 1565 1563 1562 1561 1561 1560 1559 1557 1554 1553 1550 1548 1547 1544 1541 1538 1535 1533 1529 1523 1519 1516 1511 1507 1500 1489 1483 1479 1476 1468 1459 1460 1454 1448